Location: Santa Cristina
(46.5667°N, 11.7167°E)
Time: 06:13:41
(UTC+00:00)

Cosmos 1844 Rocket - Pass Details

Date: 21 April 2021
Orbit: 825 x 844 km, 71.0° (Epoch: 15 May)

Event Time Altitude Azimuth Distance (km) Brightness Sun altitude
Exits shadow 00:47:00 26° 295° (WNW) 1,594 4.1 -27.8°
Maximum altitude 00:47:55 27° 311° (NW) 1,552 4.1 -27.7°
Drops below altitude 10° 00:52:36 10° 9° (N) 2,439 6.0 -27.3°
Sets 00:55:27 0° 21° (NNE) 3,378 7.1 -27.1°
